Hourly Weather Ryabinovaya Slobodka

Today, 20 April, Tuesday

Time Temperature Precipitation Wind Pressure Humidity
00:00 +5°C° 0 mm 4 mps 748 mmHg 85%
01:00 +5°C° 0 mm 4 mps 747 mmHg 86%
02:00 +5°C° 0 mm 3 mps 747 mmHg 86%
03:00 +4°C° 0.1 mm 3 mps 747 mmHg 87%
04:00 +4°C° 0.1 mm 4 mps 746 mmHg 88%
05:00 +4°C° 0.1 mm 4 mps 746 mmHg 89%
06:00 +4°C° 0.1 mm 4 mps 746 mmHg 90%
07:00 +4°C° 0.1 mm 4 mps 746 mmHg 90%
08:00 +4°C° 0.1 mm 4 mps 746 mmHg 91%
09:00 +4°C° 0 mm 4 mps 745 mmHg 92%
10:00 +4°C° 0 mm 4 mps 745 mmHg 93%
11:00 +4°C° 0 mm 4 mps 745 mmHg 93%
12:00 +4°C° 0 mm 4 mps 745 mmHg 92%
13:00 +5°C° 0 mm 4 mps 744 mmHg 90%
14:00 +5°C° 0 mm 4 mps 744 mmHg 88%
15:00 +5°C° 0.1 mm 4 mps 744 mmHg 89%
16:00 +4°C° 0.1 mm 4 mps 743 mmHg 91%
17:00 +4°C° 0.1 mm 4 mps 743 mmHg 92%
18:00 +4°C° 0.7 mm 4 mps 743 mmHg 93%
19:00 +4°C° 0.7 mm 4 mps 742 mmHg 93%
20:00 +4°C° 0.7 mm 4 mps 742 mmHg 94%
21:00 +4°C° 0.4 mm 4 mps 742 mmHg 94%
22:00 +3°C° 0.4 mm 4 mps 741 mmHg 93%
23:00 +3°C° 0.4 mm 3 mps 741 mmHg 93%

Tomorrow, 21 April, Wednesday

Time Temperature Precipitation Wind Pressure Humidity
00:00 +3°C° 0 mm 3 mps 741 mmHg 93%
01:00 +3°C° 0 mm 3 mps 740 mmHg 92%
02:00 +3°C° 0 mm 3 mps 740 mmHg 92%
03:00 +3°C° 0 mm 3 mps 740 mmHg 91%
04:00 +3°C° 0 mm 3 mps 740 mmHg 91%
05:00 +3°C° 0 mm 3 mps 739 mmHg 91%
06:00 +3°C° 0 mm 3 mps 739 mmHg 88%
07:00 +3°C° 0 mm 3 mps 740 mmHg 85%
08:00 +4°C° 0 mm 4 mps 740 mmHg 82%
09:00 +4°C° 0 mm 4 mps 740 mmHg 79%
10:00 +5°C° 0 mm 4 mps 740 mmHg 76%
11:00 +6°C° 0 mm 4 mps 740 mmHg 73%
12:00 +6°C° 0.1 mm 4 mps 740 mmHg 72%
13:00 +6°C° 0.1 mm 4 mps 740 mmHg 72%
14:00 +7°C° 0.1 mm 4 mps 740 mmHg 71%
15:00 +7°C° 0.1 mm 4 mps 740 mmHg 72%
16:00 +7°C° 0.1 mm 4 mps 741 mmHg 73%
17:00 +8°C° 0.1 mm 3 mps 741 mmHg 74%
18:00 +7°C° 0.1 mm 3 mps 741 mmHg 78%
19:00 +5°C° 0.1 mm 3 mps 741 mmHg 82%
20:00 +4°C° 0.1 mm 3 mps 742 mmHg 86%
21:00 +4°C° 0 mm 3 mps 742 mmHg 87%
22:00 +4°C° 0 mm 3 mps 742 mmHg 89%
23:00 +4°C° 0 mm 3 mps 742 mmHg 90%

Day after tomorrow, 22 April, Thursday

Time Temperature Precipitation Wind Pressure Humidity
00:00 +4°C° 0 mm 3 mps 742 mmHg 89%
01:00 +4°C° 0 mm 3 mps 742 mmHg 87%
02:00 +4°C° 0 mm 3 mps 742 mmHg 86%
03:00 +4°C° 0 mm 3 mps 742 mmHg 86%
04:00 +4°C° 0 mm 3 mps 742 mmHg 86%
05:00 +4°C° 0 mm 3 mps 743 mmHg 86%
06:00 +5°C° 0 mm 4 mps 743 mmHg 84%
07:00 +6°C° 0 mm 4 mps 743 mmHg 82%
08:00 +6°C° 0 mm 5 mps 743 mmHg 81%
09:00 +8°C° 0.1 mm 5 mps 743 mmHg 75%
10:00 +10°C° 0.1 mm 6 mps 743 mmHg 70%
11:00 +11°C° 0.1 mm 6 mps 743 mmHg 64%
12:00 +13°C° 0.6 mm 6 mps 743 mmHg 64%
13:00 +13°C° 0.6 mm 6 mps 743 mmHg 63%
14:00 +13°C° 0.6 mm 6 mps 743 mmHg 63%
15:00 +13°C° 0.3 mm 6 mps 743 mmHg 62%
16:00 +13°C° 0.3 mm 5 mps 743 mmHg 62%
17:00 +13°C° 0.3 mm 5 mps 743 mmHg 62%
18:00 +12°C° 0.1 mm 4 mps 743 mmHg 68%
19:00 +11°C° 0.1 mm 3 mps 743 mmHg 74%
20:00 +9°C° 0.1 mm 3 mps 743 mmHg 80%
21:00 +9°C° 0 mm 3 mps 743 mmHg 82%
22:00 +8°C° 0 mm 3 mps 742 mmHg 85%
23:00 +7°C° 0 mm 4 mps 742 mmHg 88%

23 April, Friday

Time Temperature Precipitation Wind Pressure Humidity
00:00 +7°C° 0 mm 4 mps 742 mmHg 89%
01:00 +7°C° 0 mm 5 mps 742 mmHg 91%
02:00 +7°C° 0 mm 6 mps 742 mmHg 92%
03:00 +6°C° 0 mm 4 mps 743 mmHg 91%
04:00 +5°C° 0 mm 3 mps 743 mmHg 90%
05:00 +6°C° 0 mm 2 mps 743 mmHg 89%
06:00 +5°C° 0 mm 3 mps 744 mmHg 85%
07:00 +5°C° 0 mm 3 mps 744 mmHg 80%
08:00 +7°C° 0 mm 3 mps 744 mmHg 75%
09:00 +5°C° 0.6 mm 4 mps 744 mmHg 79%
10:00 +4°C° 0.6 mm 4 mps 744 mmHg 82%
11:00 +4°C° 0.6 mm 4 mps 745 mmHg 86%
12:00 +4°C° 0.8 mm 4 mps 745 mmHg 83%
13:00 +4°C° 0.8 mm 4 mps 744 mmHg 81%
14:00 +4°C° 0.8 mm 3 mps 744 mmHg 79%
15:00 +5°C° 0.1 mm 3 mps 744 mmHg 77%
16:00 +5°C° 0.1 mm 3 mps 744 mmHg 75%
17:00 +5°C° 0.1 mm 3 mps 744 mmHg 73%
18:00 +5°C° 0 mm 3 mps 744 mmHg 78%
19:00 +4°C° 0 mm 4 mps 744 mmHg 82%
20:00 +3°C° 0 mm 4 mps 744 mmHg 87%
21:00 +3°C° 0 mm 3 mps 743 mmHg 89%
22:00 +2°C° 0 mm 3 mps 743 mmHg 91%
23:00 +2°C° 0 mm 3 mps 743 mmHg 93%

24 April, Saturday

Time Temperature Precipitation Wind Pressure Humidity
00:00 +1°C° 0 mm 3 mps 743 mmHg 93%
01:00 0°C° 0 mm 3 mps 743 mmHg 93%
02:00 0°C° 0 mm 3 mps 742 mmHg 93%
03:00 0°C° 0 mm 3 mps 742 mmHg 94%
04:00 0°C° 0 mm 3 mps 742 mmHg 96%
05:00 -1°C° 0 mm 3 mps 742 mmHg 97%
06:00 0°C° 0.1 mm 3 mps 743 mmHg 95%
07:00 -1°C° 0.1 mm 4 mps 743 mmHg 93%
08:00 0°C° 0.1 mm 4 mps 743 mmHg 91%
09:00 0°C° 0.1 mm 5 mps 743 mmHg 83%
10:00 +1°C° 0.1 mm 5 mps 743 mmHg 75%
11:00 +1°C° 0.1 mm 6 mps 743 mmHg 67%
12:00 +2°C° 0.1 mm 6 mps 743 mmHg 62%
13:00 +3°C° 0.1 mm 6 mps 743 mmHg 57%
14:00 +4°C° 0.1 mm 6 mps 743 mmHg 52%
15:00 +4°C° 0.1 mm 6 mps 743 mmHg 54%
16:00 +5°C° 0.1 mm 5 mps 743 mmHg 55%
17:00 +5°C° 0.1 mm 5 mps 743 mmHg 57%
18:00 +4°C° 0.1 mm 4 mps 743 mmHg 64%
19:00 +1°C° 0.1 mm 4 mps 743 mmHg 70%
20:00 +1°C° 0.1 mm 3 mps 743 mmHg 77%
21:00 +1°C° 0 mm 3 mps 743 mmHg 80%
22:00 0°C° 0 mm 3 mps 743 mmHg 83%
23:00 -1°C° 0 mm 4 mps 743 mmHg 86%

25 April, Sunday

Time Temperature Precipitation Wind Pressure Humidity
00:00 -2°C° 0.1 mm 4 mps 743 mmHg 87%
01:00 -2°C° 0.1 mm 4 mps 743 mmHg 89%
02:00 -1°C° 0.1 mm 3 mps 743 mmHg 90%
03:00 -1°C° 0 mm 3 mps 743 mmHg 91%
04:00 -2°C° 0 mm 3 mps 743 mmHg 91%
05:00 -2°C° 0 mm 3 mps 743 mmHg 92%
06:00 -2°C° 0 mm 4 mps 743 mmHg 82%
07:00 -1°C° 0 mm 5 mps 744 mmHg 72%
08:00 0°C° 0 mm 5 mps 744 mmHg 63%
09:00 +1°C° 0.1 mm 6 mps 744 mmHg 59%
10:00 +2°C° 0.1 mm 6 mps 743 mmHg 54%
11:00 +3°C° 0.1 mm 7 mps 743 mmHg 50%
12:00 +3°C° 0.3 mm 7 mps 743 mmHg 52%
13:00 +2°C° 0.3 mm 8 mps 743 mmHg 54%
14:00 +4°C° 0.3 mm 8 mps 742 mmHg 56%
15:00 +2°C° 0.3 mm 8 mps 742 mmHg 62%
16:00 +3°C° 0.3 mm 7 mps 742 mmHg 68%
17:00 +2°C° 0.3 mm 7 mps 742 mmHg 74%
18:00 +2°C° 0.2 mm 7 mps 742 mmHg 76%
19:00 +1°C° 0.2 mm 6 mps 742 mmHg 79%
20:00 +1°C° 0.2 mm 6 mps 742 mmHg 81%
21:00 -1°C° 0 mm 6 mps 742 mmHg 83%
22:00 -1°C° 0 mm 7 mps 742 mmHg 85%
23:00 -1°C° 0 mm 7 mps 743 mmHg 86%
Show more